Regional Weather Roundup
Issued by NWS Cleveland, OH

Home | Current Version | Previous Version | Graphics & Text | Print | Product List | Glossary On
Versions: 1 2 3 4 5 6 7 8 9 10 11 12 13 14 15 16 17 18 19 20 21 22 23 24 25 26 27 28 29 30 31 32 33 34 35 36 37 38 39 40 41 42 43 44 45 46 47 48 49 50
154
ASUS41 KCLE 011310
RWRCLE
OHIO REGIONAL WEATHER ROUNDUP
NATIONAL WEATHER SERVICE CLEVELAND, OH
900 AM EDT SUN MAY 01 2016

NOTE: "FAIR" INDICATES FEW OR NO CLOUDS BELOW 12,000 FEET WITH NO
SIGNIFICANT WEATHER AND/OR OBSTRUCTIONS TO VISIBILITY.

OHZ001>008-015>018-024>027-034-035-043-044-011400-
   NORTHWEST OHIO

CITY           SKY/WX    TMP DP  RH WIND       PRES   REMARKS
DEFIANCE       CLOUDY    51  48  89 NE7       29.93S
FINDLAY        FOG       53  50  89 E3        29.92R VSB 3/4
TOLEDO EXPRESS FOG       49  49 100 NE6       29.93S VSB 1
TOLEDO EXEC    FOG       51  49  92 NE6       29.94R VSB 1/4
LIMA           FOG       55  55 100 CALM      29.92R VSB 1/4
$$

OHZ009>014-019>023-028>033-038-089-011400-
   NORTHEAST OHIO

CITY           SKY/WX    TMP DP  RH WIND       PRES   REMARKS
CLE-HOPKINS    CLOUDY    56  55  97 W3        29.94R FOG
CLE-LAKEFRONT  CLOUDY    55  53  93 SW3       29.91R FOG
CUY CO. ARPT   FOG       59  55  88 W6        29.92R VSB 3/4
LORAIN-ELYRIA  CLOUDY    54  52  93 CALM      29.92S FOG
ASHTABULA      CLOUDY    56  55  97 NW3       29.92S FOG
AKRON-CANTON   CLOUDY    60  58  92 SW10      29.93R FOG
WOOSTER        CLOUDY    59  58  96 SW8       29.93R FOG
MANSFIELD      CLOUDY    60  60 100 SW8       29.93R
YOUNGSTOWN     DRZL/FOG  59  58  96 SW8       29.92R VSB 1
$$

OHZ042-051>053-060>062-070>072-077>081-011400-
  SOUTHWEST OHIO

CITY           SKY/WX    TMP DP  RH WIND       PRES   REMARKS
CINC-COVINGTON PTSUNNY   65  62  90 S7        29.93R
CINC-LUNKEN    MOSUNNY   65  63  93 SW6       29.94R
HAMILTON       PTSUNNY   64  62  93 CALM      29.93S FOG
DAYTON         PTSUNNY   62  61  96 S5        29.93S FOG
WRIGHT-PAT AFB CLOUDY    63  63 100 S6        29.92S
DAYTON GENERAL CLOUDY    63  60  90 SW6       29.93R
WILMINGTON     CLOUDY    62  61  96 SW9       29.94R
$$

OHZ036-037-039>041-045>050-054>059-063>069-073>076-082>088-011400-
  CENTRAL AND SOUTHEAST OHIO

CITY           SKY/WX    TMP DP  RH WIND       PRES   REMARKS
COLUMBUS       CLOUDY    60  60 100 S3        29.92F
OSU AIRPORT    CLOUDY    63  60  90 S6        29.93S
BOLTON FIELD   CLOUDY    61  61 100 S5        29.94S FOG
RICKENBACK AFB CLOUDY    61  60  96 CALM      29.94S
NEWARK         CLOUDY    64  59  83 W6        29.94S
MARION         CLOUDY    62  60  93 SW7       29.92F FOG
LANCASTER      CLOUDY    63  59  87 S3        29.94S
ZANESVILLE     CLOUDY    64  60  87 S8        29.95S
NEW PHILLY     CLOUDY    61  59  93 SW6       29.95R FOG
$$




USA.gov is the U.S. government's official web portal to all federal, state and local government web resources and services.